Location: NJAA Observatory
(40.6819°N, 74.8979°W)
Time: 12:32:29
(UTC-04:00)

Courier 1B - All Passes

Search period start: 20 August 2014 00:00
Search period end: 30 August 2014 00:00
Orbit: 963 x 1209 km, 28.3° (Epoch: 20 August)

Date Brightness Start Highest point End Pass type
(mag) Time Alt. Az. Time Alt. Az. Time Alt. Az.
20 Aug - 12:25:13 10° SSW 12:29:25 18° SSE 12:33:32 10° ESE daylight
20 Aug - 14:17:13 10° SW 14:22:31 27° S 14:27:46 10° ESE daylight
20 Aug - 16:10:40 10° WSW 16:15:41 24° S 16:20:44 10° SE daylight
20 Aug - 18:06:00 10° SW 18:08:42 13° SSW 18:11:26 10° S daylight
21 Aug - 11:32:28 10° S 11:35:57 15° SSE 11:39:23 10° SE daylight
21 Aug - 13:23:48 10° SW 13:29:02 25° S 13:34:11 10° ESE daylight
21 Aug - 15:17:00 10° WSW 15:22:13 26° S 15:27:25 10° SE daylight
21 Aug - 17:11:33 10° SW 17:15:16 16° SSW 17:19:01 10° SSE daylight
22 Aug - 10:40:16 10° S 10:42:30 12° SSE 10:44:41 10° SE daylight
22 Aug - 12:30:26 10° SW 12:35:33 23° SSE 12:40:32 10° ESE daylight
22 Aug - 14:23:22 10° WSW 14:28:44 27° S 14:34:02 10° SE daylight
22 Aug - 16:17:29 10° WSW 16:21:50 19° SSW 16:26:12 10° SSE daylight
23 Aug - 11:37:11 10° SSW 11:42:04 21° SSE 11:46:47 10° ESE daylight
23 Aug - 13:29:45 10° SW 13:35:15 28° S 13:40:35 10° ESE daylight
23 Aug - 15:23:34 10° WSW 15:28:23 22° SSW 15:33:10 10° SE daylight
24 Aug - 10:44:04 10° SSW 10:48:34 18° SSE 10:52:55 10° ESE daylight
24 Aug - 12:36:11 10° SW 12:41:44 27° S 12:47:06 10° ESE daylight
24 Aug - 14:29:45 10° WSW 14:34:56 25° S 14:40:00 10° SE daylight
24 Aug - 16:25:06 10° SW 16:27:55 13° SSW 16:30:43 10° S daylight
25 Aug - 09:51:13 10° SSW 09:55:03 15° SSE 09:58:47 10° SE daylight
25 Aug - 11:42:40 10° SW 11:48:13 26° S 11:53:33 10° ESE daylight
25 Aug - 13:35:59 10° WSW 13:41:27 27° S 13:46:45 10° SE daylight
25 Aug - 15:30:37 10° WSW 15:34:30 17° SSW 15:38:21 10° SSE daylight
26 Aug - 08:58:52 10° S 09:01:32 12° SSE 09:04:09 10° SE daylight
26 Aug - 10:49:13 10° SW 10:54:41 24° SSE 10:59:55 10° ESE daylight
26 Aug - 12:42:15 10° WSW 12:47:56 28° S 12:53:25 10° SE daylight
26 Aug - 14:36:28 10° WSW 14:41:04 20° SSW 14:45:35 10° SSE daylight
27 Aug - 09:55:53 10° SSW 10:01:08 22° SSE 10:06:11 10° ESE daylight
27 Aug - 11:48:33 10° SW 11:54:24 29° S 12:00:00 10° ESE daylight
27 Aug - 13:42:28 10° WSW 13:47:36 23° SSW 13:52:35 10° SE daylight
27 Aug - 15:39:21 10° SW 15:40:32 11° SSW 15:41:42 10° SSW daylight
28 Aug - 09:02:42 10° SSW 09:07:34 19° SSE 09:12:16 10° ESE daylight
28 Aug - 10:54:54 10° SW 11:00:51 28° S 11:06:31 10° ESE daylight
28 Aug - 12:48:33 10° WSW 12:54:07 26° S 12:59:27 10° SE daylight
28 Aug - 14:43:51 10° SW 14:47:08 14° SSW 14:50:21 10° S daylight
29 Aug - 08:09:48 10° SSW 08:14:01 16° SSE 08:18:06 10° ESE daylight
29 Aug - 10:01:18 10° SW 10:07:16 27° S 10:12:57 10° ESE daylight
29 Aug - 11:54:42 10° WSW 12:00:35 28° S 12:06:12 10° SE daylight
29 Aug - 13:49:21 10° WSW 13:53:42 18° SSW 13:57:55 10° SSE daylight
